Location: ??????
(56.0120°N, 39.1740°E)
Time: 20:58:08
(UTC+00:00)

NOSS 2-1 (E) - Pass Details

Date: 14 April 2026
Orbit: 385 x 1749 km, 63.3° (Epoch: 7 May)

Event Time Altitude Azimuth Distance (km) Brightness Sun altitude
Rises 17:09:38 0° 306° (NW) 2,281 8.9 -6.2°
Reaches altitude 10° 17:11:40 10° 315° (NW) 1,436 6.9 -6.4°
Maximum altitude 17:14:33 37° 26° (NNE) 666 3.8 -6.8°
Drops below altitude 10° 17:17:51 10° 96° (E) 1,635 5.2 -7.2°
Enters shadow 17:18:16 - 98° (E) 1,807 5.4 -7.3°
